Regional Weather Roundup
Issued by NWS

Home | Current Version | Previous Version | Text Only | Print | Product List | Glossary Off
Versions: 1 2 3 4 5 6 7 8 9 10 11 12 13 14 15 16 17 18 19 20 21 22 23 24 25 26 27 28 29 30 31 32 33 34 35 36 37 38 39 40 41 42 43 44 45 46 47 48 49 50

037
ASUS45 KBOI 240710
RWRID

IDAHO REGIONAL WEATHER ROUNDUP
NATIONAL WEATHER SERVICE BOISE ID
100 AM MDT WED MAY 24 2017

NOTE: "FAIR" INDICATES FEW OR NO CLOUDS BELOW 12000 FEET
WITH NO SIGNIFICANT WEATHER AND/OR OBSTRUCTIONS TO VISIBILITY

IDZ012-014-240800-
SOUTHWEST IDAHO


CITY           SKY/WX    TMP DP  RH WIND       PRES   REMARKS
BOISE          CLEAR     68  43  40 SE12      29.78F
CALDWELL       CLEAR     64  47  53 N5        29.76F
MOUNTAIN HOME  CLEAR     63  43  48 S13       29.81F
$$

IDZ016-017-240800-
SOUTHCENTRAL IDAHO


CITY           SKY/WX    TMP DP  RH WIND       PRES   REMARKS
BURLEY         CLEAR     58  43  57 S10       29.90F
JEROME         CLEAR     58  43  57 SE7       29.90F
TWIN FALLS     CLEAR     59  39  47 S12       29.90F
$$

IDZ019>023-240800-
SOUTHEAST IDAHO


CITY           SKY/WX    TMP DP  RH WIND       PRES   REMARKS
IDAHO FALLS    CLEAR     60  39  45 SW15      29.92F
POCATELLO      CLEAR     59  39  47 S8        29.93F
REXBURG        CLEAR     62  35  36 S14G23    29.90F
$$

IDZ006-010-011-018-031-032-240800-
CENTRAL IDAHO MOUNTAINS


CITY           SKY/WX    TMP DP  RH WIND       PRES   REMARKS
MCCALL         CLEAR     52  41  66 CALM      29.89F
HAILEY         CLEAR     54  41  62 NW8       29.99F
STANLEY          N/A     48  37  65 CALM      30.02F
SALMON         CLEAR     59  39  47 CALM      29.79F
CHALLIS        CLEAR     59  38  45 S5        29.90F
$$

IDZ002-004-006-007-026-240800-
NORTHERN IDAHO


CITY           SKY/WX    TMP DP  RH WIND       PRES   REMARKS
LEWISTON       LGT RAIN  73  35  25 W17G33    29.72R
LOWELL           N/A     59  54  83 CALM      29.70F
COEUR D`ALENE  CLEAR     65  38  36 SW24G30   29.63F
MULLAN PASS    CLEAR     53  36  52 W10G24    29.77F
$$




USA.gov is the U.S. government's official web portal to all federal, state and local government web resources and services.